Regional Weather Roundup
Issued by NWS Columbia, SC

Home | Current Version | Previous Version | Text Only | Print | Product List | Glossary On
Versions: 1 2 3 4 5 6 7 8 9 10 11 12 13 14 15 16 17 18 19 20 21 22 23 24 25 26 27 28 29 30 31 32 33 34 35 36 37 38 39 40 41 42 43 44 45 46 47 48 49 50
000
ASUS42 KCAE 180210
RWRCAE
REGIONAL WEATHER ROUNDUP
NATIONAL WEATHER SERVICE COLUMBIA SC
1000 PM EDT WED SEP 17 2014

NOTE: "FAIR" INDICATES FEW OR NO CLOUDS BELOW 12,000 FEET WITH NO
SIGNIFICANT WEATHER AND/OR OBSTRUCTIONS TO VISIBILITY.

NOT ALL STATIONS ARE QUALITY CONTROLLED BY THE NATIONAL
WEATHER SERVICE. USE DATA WITH CAUTION...ESPECIALLY
DEWPOINT OBSERVATIONS.

SCZ001>056-GAZ040-063>065-077-180300-
...UPSTATE SOUTH CAROLINA...

CITY           SKY/WX    TMP DP  RH WIND       PRES   REMARKS
ANDERSON       CLOUDY    69  65  86 NE7       29.97R
LIBERTY        MOCLDY    68  66  94 MISG      29.96S
SPARTANBURG    FAIR      68  68 100 CALM      29.96R
CLEMSON        CLOUDY    71  64  78 E3        29.98R
GREENVILLE     MOCLDY    68  63  84 NE7       29.97R
GREENWOOD      MOCLDY    68  65  90 NE3       29.97R
GREER          MOCLDY    67  64  90 NE5       29.96R
ROCK HILL      CLEAR     64  64 100 CALM      29.97R FOG
CHESTER        FAIR      68  66  94 N5        30.01R
LAURENS        FAIR      64 N/A N/A E3        29.96S


...CENTRAL SOUTH CAROLINA...

CITY           SKY/WX    TMP DP  RH WIND       PRES   REMARKS
COLUMBIA APT   MOCLDY    73  68  84 CALM      29.93R
COLUMBIA OWENS PTCLDY    71  67  87 CALM      29.94R
DARLINGTON     PTCLDY    70  64  83 NW3       29.92S
FLORENCE       CLEAR     72  68  87 CALM      29.91S
MCENTIRE ANGB  MOCLDY    68  68  99 CALM      29.94R
ORANGEBURG     MOCLDY    69  67  93 CALM      29.93R
SUMTER SHAW    CLEAR     71  66  84 NW1       29.91R
NEWBERRY       FAIR      68  68 100 NE5       29.97S
AIKEN          FAIR      70  70 100 E3        29.97S
BARNWELL       MOCLDY    72  70  94 W3        29.94R
MANNING        FAIR      72 N/A N/A CALM      29.92R
CAMDEN         FAIR      68  68 100 CALM      29.95R
LANCASTER      LGT RAIN  66  66 100 NW3       29.96R
WINNSBORO      FAIR      68  68 100 N5        29.95R


...EASTERN AND COASTAL SOUTH CAROLINA...

CITY           SKY/WX    TMP DP  RH WIND       PRES   REMARKS
MYRTLE BEACH   PTCLDY    75  70  83 NW8       29.90F
N MYRTLE BCH   CLEAR     72  69  90 CALM      29.90S
CONWAY         FAIR      72  72 100 SW3       29.91S
HARTSVILLE     FAIR      72  64  78 N3        29.93S
FLORENCE       CLEAR     72  68  87 CALM      29.91S
DARLINGTON     PTCLDY    70  64  83 NW3       29.92S
CHARLESTON APT PTCLDY    75  68  78 N3        29.92R
MOUNT PLEASANT FAIR      73  72  94 CALM      29.92R
WALTERBORO     CLEAR     68 N/A N/A CALM      29.93S
BEAUFORT       MOCLDY    71  70  96 S5        29.89F


...EASTERN GEORGIA...

CITY           SKY/WX    TMP DP  RH WIND       PRES   REMARKS
AUGUSTA BUSH F PTCLDY    70  69  97 CALM      29.92R
AUGUSTA DANIEL PTCLDY    73  70  90 E7        29.94R
THOMSON        PTCLDY    73  73 100 CALM      29.97R
WASHINGTON     FAIR      73  73 100 E3        29.94R
CLAXTON        DRIZZLE   73  73 100 CALM      29.90S
SYLVANIA       RAIN      73  72  96 CALM      29.93R
STATESBORO     MOCLDY    72  72 100 N10       29.92R
SAVANNAH       CLOUDY    74  71  91 CALM      29.91R


...SOUTHERN NORTH CAROLINA...

CITY           SKY/WX    TMP DP  RH WIND       PRES   REMARKS
CHARLOTTE      PTCLDY    66  63  90 N5        29.97R
MONROE         PTCLDY    69  65  86 N6        29.95R
WADESBORO      MOCLDY    69  67  93 CALM      29.93S FOG
ROCKINGHAM     CLEAR     70  67  89 CALM      29.93R
RUTHERFORDTON  CLEAR     64  64  97 NW10      29.99R
ASHEVILLE      PTCLDY    65  61  87 SW3       30.02R

$$


USA.gov is the U.S. government's official web portal to all federal, state and local government web resources and services.